This demonstration page uses our WeatherBlox Daily Observations layout. Learn more.

Left ArrowRight Arrow

39.51506, -84.39828

Hourly Observations for August 1, 2021

Temp ( °F °C ) Dew Point ( °F °C ) Humidity (%) Winds ( mph kmh ) Pressure ( in mb ) Visibility ( mi km ) Precip ( " mm )
12:15 am 00:15 Clear 63 17.4 62 16.8 96 96 SW 5 7 29.95 1014 10 16 N/A
12:35 am 00:35 Partly Cloudy 63 17.4 62 16.9 97 97 WSW 5 7 29.95 1014 10 16 N/A
12:55 am 00:55 Partly Cloudy 63 17.1 62 16.6 97 97 N N/A 29.95 1014 10 16 N/A
1:15 am 01:15 Clear 63 17 61 16.1 94 94 N N/A 29.94 1014 10 16 N/A
1:35 am 01:35 Mostly Cloudy 63 17.1 60 15.6 91 91 N N/A 29.94 1014 10 16 N/A
1:55 am 01:55 Clear 62 16.9 60 15.4 91 91 N N/A 29.94 1014 10 16 N/A
2:15 am 02:15 Clear 61 16.2 59 15.1 93 93 N N/A 29.95 1014 10 16 N/A
2:35 am 02:35 Clear 63 17.2 59 15.1 88 88 N N/A 29.95 1014 10 16 N/A
2:55 am 02:55 Clear 62 16.8 59 15.1 90 90 N N/A 29.94 1014 10 16 N/A
3:15 am 03:15 Clear 61 16.2 59 14.8 91 91 N N/A 29.94 1014 10 16 N/A
3:35 am 03:35 Mostly Cloudy 62 16.4 59 15.1 92 92 N N/A 29.93 1014 10 16 N/A
3:55 am 03:55 Clear 61 16.2 59 15 93 93 E 3 6 29.93 1014 10 16 N/A
4:15 am 04:15 Clear 60 15.4 58 14.4 94 94 ESE 3 6 29.95 1014 10 16 N/A
4:35 am 04:35 Clear 59 14.9 58 14.5 97 97 SW 3 6 29.95 1014 10 16 N/A
4:55 am 04:55 Clear 60 15.4 59 14.8 96 96 N N/A 29.95 1014 10 16 N/A
5:15 am 05:15 Clear 57 14 57 14 100 100 WSW 5 7 29.95 1014 10 16 N/A
5:35 am 05:35 Clear 57 14 N/A N/A WSW 6 9 29.95 1014 7 11 N/A
5:55 am 05:55 Clear 57 14 N/A N/A SW 3 6 29.94 1014 7 11 N/A
6:15 am 06:15 Hazy 55 13 N/A N/A WSW 3 6 29.95 1014 5 8 N/A
6:35 am 06:35 Clear with Mist and Fog 55 13 N/A N/A N N/A 29.95 1014 4 6 N/A
6:55 am 06:55 Hazy 55 13 N/A N/A N N/A 29.96 1015 4 6 N/A
7:15 am 07:15 Hazy 57 14 N/A N/A N N/A 29.96 1015 5 8 N/A
7:35 am 07:35 Hazy 59 15 N/A N/A N N/A 29.96 1014 5 8 N/A
7:55 am 07:55 Hazy 59 15 N/A N/A SW 5 7 29.96 1014 5 8 N/A
8:15 am 08:15 Sunny with Mist and Fog 61 16 61 15.9 99 99 SW 6 9 29.95 1014 7 11 N/A
8:35 am 08:35 Sunny 62 16.8 61 16.3 97 97 SW 6 9 29.96 1015 7 11 N/A
8:55 am 08:55 Sunny with Mist and Fog 63 17.4 62 16.5 94 94 SSW 6 9 29.96 1015 7 11 N/A
9:15 am 09:15 Partly Cloudy 65 18.3 62 16.8 91 91 WSW 3 6 29.96 1015 7 11 N/A
9:35 am 09:35 Sunny 67 19.2 63 17.4 89 89 SSW 5 7 29.97 1015 7 11 N/A
9:55 am 09:55 Sunny 70 21 64 18 83 83 WSW 6 9 29.96 1015 7 11 N/A
10:15 am 10:15 Partly Cloudy 71 21.9 65 18.6 82 82 WSW 6 9 29.95 1014 7 11 N/A
10:35 am 10:35 Sunny 73 22.7 66 19 80 80 W 7 11 29.95 1014 10 16 N/A
10:55 am 10:55 Sunny 74 23.6 66 19 75 75 W 9 15 29.96 1014 10 16 N/A
11:15 am 11:15 Sunny 76 24.6 66 19.1 72 72 W 12 19 29.95 1014 10 16 N/A
11:35 am 11:35 Partly Cloudy 77 24.9 66 18.7 69 69 WNW 10 17 29.95 1014 10 16 N/A
11:55 am 11:55 Sunny 78 25.4 67 19.2 69 69 WNW 12 19 29.95 1014 10 16 N/A
12:15 pm 12:15 Partly Cloudy 78 25.8 66 18.9 66 66 W 16 26 29.95 1014 10 16 N/A
12:35 pm 12:35 Mostly Cloudy 78 25.7 67 19.3 68 68 W 14 22 29.95 1014 10 16 N/A
12:55 pm 12:55 Partly Cloudy 78 25.7 66 18.7 65 65 WNW 9 15 29.94 1014 10 16 N/A
1:15 pm 13:15 Partly Cloudy 80 26.4 65 18.6 62 62 WNW 12 19 29.93 1014 10 16 N/A
1:35 pm 13:35 Partly Cloudy 80 26.7 66 19.1 63 63 W 15 24 29.93 1014 7 11 N/A
1:55 pm 13:55 Hazy 80 26.8 65 18.6 61 61 WNW 14 22 29.92 1013 5 8 N/A
2:15 pm 14:15 Mostly Cloudy 81 27.4 65 18.6 59 59 WNW 12 19 29.92 1013 7 11 N/A
2:35 pm 14:35 Mostly Cloudy 74 23.5 67 19.7 79 79 N 9 15 29.93 1013 7 11 0.02 0.51
2:55 pm 14:55 Partly Cloudy 78 25.6 69 20.6 74 74 N 8 13 29.92 1013 7 11 0.02 0.51
3:15 pm 15:15 Partly Cloudy 80 26.5 66 18.8 63 63 NW 14 22 29.92 1013 7 11 N/A
3:35 pm 15:35 Mostly Cloudy 78 25.7 65 18.3 64 64 NNW 14 22 29.93 1014 7 11 N/A
3:55 pm 15:55 Mostly Cloudy with Haze 77 25 65 18.1 66 66 NNW 13 20 29.94 1014 7 11 N/A
4:15 pm 16:15 Cloudy with Light Rain 74 23.3 63 17.4 70 70 NNW 10 17 29.95 1014 7 11 N/A
4:35 pm 16:35 Mostly Cloudy 77 25.1 64 17.5 63 63 NNW 12 19 29.94 1014 7 11 N/A
4:55 pm 16:55 Sunny 78 25.4 63 17 60 60 NNW 10 17 29.94 1014 10 16 N/A
5:15 pm 17:15 Mostly Cloudy 79 26 62 16.8 57 57 N 12 19 29.94 1014 10 16 N/A
5:35 pm 17:35 Partly Cloudy 80 26.8 59 15.2 49 49 N 13 20 29.94 1014 10 16 N/A
5:55 pm 17:55 Sunny 80 26.6 57 14 46 46 N 14 22 29.94 1014 10 16 N/A
6:15 pm 18:15 Sunny 79 26.2 53 11.9 41 41 NNW 14 22 29.95 1014 10 16 N/A
6:35 pm 18:35 Sunny 78 25.8 55 12.6 44 44 N 10 17 29.95 1014 10 16 N/A
6:55 pm 18:55 Sunny 78 25.5 56 13.4 47 47 NNW 9 15 29.95 1014 10 16 N/A
7:15 pm 19:15 Sunny 77 25 55 12.5 46 46 NNW 9 15 29.96 1015 10 16 N/A
7:35 pm 19:35 Sunny 76 24.5 55 12.9 48 48 NNW 6 9 29.96 1015 10 16 N/A
7:55 pm 19:55 Sunny 75 23.9 55 12.8 50 50 N 8 13 29.98 1015 10 16 N/A
8:15 pm 20:15 Sunny 73 22.8 56 13.2 55 55 NNW 6 9 29.98 1015 10 16 N/A
8:35 pm 20:35 Sunny 72 22.1 56 13.2 57 57 NNW 5 7 29.99 1016 10 16 N/A
8:55 pm 20:55 Clear 70 21.2 56 13.6 62 62 NNW 5 7 29.99 1016 10 16 N/A
9:15 pm 21:15 Clear 69 20.3 58 14.3 69 69 NNW 5 7 30.00 1016 10 16 N/A
9:35 pm 21:35 Clear 67 19.3 59 15 76 76 NNW 5 7 30.02 1016 10 16 N/A
9:55 pm 21:55 Clear 66 18.8 58 14.4 76 76 NNW 6 9 30.02 1017 10 16 N/A
10:15 pm 22:15 Clear 66 18.7 58 14.3 76 76 NNW 7 11 30.03 1017 10 16 N/A
10:35 pm 22:35 Clear 66 18.8 56 13.6 72 72 N N/A 30.04 1017 10 16 N/A
10:55 pm 22:55 Clear 65 18.3 56 13.4 73 73 NNW 5 7 30.05 1018 10 16 N/A
11:15 pm 23:15 Clear 64 17.9 57 13.7 77 77 NNW 5 7 30.05 1018 10 16 N/A
11:35 pm 23:35 Clear 63 17.4 56 13.6 79 79 NNW 5 7 30.05 1018 10 16 N/A
11:55 pm 23:55 Clear 62 16.5 57 14 85 85 N N/A 30.06 1018 10 16 N/A

Powered by AerisWeather